sat.trackr.live / text

‹ back to catalog

SKYKRAFT-1A

NORAD 55054 · 2023-001AX

PAYLOAD ACTIVE UNKNOWN

§ Identity

Operator
Country
AUS
Launch date
2023-01-03
Launch site
AFETR
Launch vehicle
Mass (kg)
RCS (m²)

External: N2YO · Heavens-Above · Gunter

§ Orbital elements

Epoch: 2026-05-25T02:30:21.092256Z

Period
94.18 min
Inclination
97.3235°
Eccentricity
0.0008924
Mean motion
15.28997288 rev/d
Perigee alt
472.7 km
Apogee alt
484.9 km
Semi-major
6,856.9 km
B*
1.8068e-4
RAAN
202.8331°
Arg perigee
204.1834°
Mean anomaly
155.8988°
Rev number
18,819

§ Raw data

SKYKRAFT-1A1 55054U 23001AX  26145.10441079  .00005018  00000+0  18068-3 0  99982 55054  97.3235 202.8331 0008924 204.1834 155.8988 15.28997288188194

JSON: /api/v1/satellites/55054 · /tle

For live sub-satellite position, see the globe view (requires WebGL).

§ Visibility from observer

Set your observer location to see the next 7 days of passes ≥ 10°. The values pass through the URL so the page stays shareable.

No JS? Fill the form by hand. The geolocation button needs JavaScript.